This demonstration page uses our WeatherBlox Daily Observations layout. Learn more.

Left ArrowRight Arrow

Hourly Observations for July 23, 2021

Temp ( °F °C ) Dew Point ( °F °C ) Humidity (%) Winds ( mph kmh ) Pressure ( in mb ) Visibility ( mi km ) Precip ( " mm )
12:15 am 00:15 Clear 75 23.7 61 16.1 63 63 SSE 10 17 29.90 1013 10 16 N/A
12:35 am 00:35 Clear 74 23.2 61 16.1 64 64 SSE 9 15 29.91 1013 10 16 N/A
12:55 am 00:55 Clear 73 22.8 61 16.1 66 66 SSE 9 15 29.91 1013 10 16 N/A
1:15 am 01:15 Clear 73 22.5 61 16 67 67 S 10 17 29.91 1013 10 16 N/A
1:35 am 01:35 Clear 73 23 60 15.8 64 64 S 9 15 29.91 1013 10 16 N/A
1:55 am 01:55 Clear 73 22.7 60 15.8 65 65 S 9 15 29.91 1013 10 16 N/A
2:15 am 02:15 Clear 73 22.5 60 15.8 66 66 S 8 13 29.90 1013 10 16 N/A
2:35 am 02:35 Clear 71 21.8 60 15.7 68 68 S 7 11 29.91 1013 10 16 N/A
2:55 am 02:55 Clear 72 22 60 15.7 68 68 S 8 13 29.90 1012 10 16 N/A
3:15 am 03:15 Clear 71 21.6 60 15.8 70 70 S 8 13 29.90 1012 10 16 N/A
3:35 am 03:35 Clear 71 21.5 60 15.7 70 70 S 6 9 29.91 1013 10 16 N/A
3:55 am 03:55 Clear 71 21.6 60 15.7 69 69 S 7 11 29.91 1013 10 16 N/A
4:15 am 04:15 Clear 70 21.1 60 15.7 71 71 S 8 13 29.90 1013 10 16 N/A
4:35 am 04:35 Clear 70 21 60 15.7 72 72 S 6 9 29.90 1013 10 16 N/A
4:55 am 04:55 Clear 69 20.6 60 15.8 74 74 SSE 6 9 29.91 1013 10 16 N/A
5:15 am 05:15 Clear 68 20.2 60 15.7 75 75 SSE 5 7 29.91 1013 10 16 N/A
5:35 am 05:35 Clear 68 20.2 60 15.8 76 76 SSE 6 9 29.91 1013 10 16 N/A
5:55 am 05:55 Clear 68 20 60 15.8 77 77 SSE 5 7 29.91 1013 10 16 N/A
6:15 am 06:15 Clear 68 19.9 60 15.7 77 77 E 3 6 29.92 1013 10 16 N/A
6:35 am 06:35 Sunny 68 19.9 60 15.7 77 77 ESE 3 6 29.93 1014 10 16 N/A
6:55 am 06:55 Sunny 68 20.2 61 16 77 77 NNE 8 13 29.91 1013 10 16 N/A
7:15 am 07:15 Sunny 69 20.3 61 16.1 77 77 SSE 3 6 29.92 1013 10 16 N/A
7:35 am 07:35 Sunny 70 21 61 16.3 75 75 SE 3 6 29.92 1013 10 16 N/A
7:55 am 07:55 Sunny 71 21.6 62 16.6 73 73 SSE 5 7 29.92 1013 10 16 N/A
8:15 am 08:15 Sunny 72 22.3 62 16.8 71 71 S 6 9 29.91 1013 10 16 N/A
8:35 am 08:35 Sunny 73 23 63 17.1 70 70 S 5 7 29.92 1013 10 16 N/A
8:55 am 08:55 Sunny 75 23.8 63 17.2 67 67 S 9 15 29.92 1013 10 16 N/A
9:15 am 09:15 Sunny 76 24.6 64 17.7 66 66 SSW 7 11 29.90 1013 10 16 N/A
9:35 am 09:35 Sunny 78 25.4 64 17.5 62 62 SSW 12 19 29.91 1013 10 16 N/A
9:55 am 09:55 Sunny 78 25.7 63 17.4 60 60 SSW 7 11 29.90 1013 10 16 N/A
10:15 am 10:15 Sunny 79 26.2 64 17.5 59 59 N N/A 29.90 1013 10 16 N/A
10:35 am 10:35 Sunny 80 26.9 64 17.8 58 58 SSW 8 13 29.88 1012 10 16 N/A
10:55 am 10:55 Sunny 81 27.3 65 18.3 58 58 SW 8 13 29.88 1012 10 16 N/A
11:15 am 11:15 Sunny 82 28 65 18.2 55 55 S 7 11 29.88 1012 10 16 N/A
11:35 am 11:35 Sunny 83 28.5 66 18.9 56 56 SSW 8 13 29.87 1012 10 16 N/A
11:55 am 11:55 Sunny 85 29.3 66 18.9 54 54 S 9 15 29.85 1011 10 16 N/A
12:15 pm 12:15 Sunny 86 29.9 67 19.2 53 53 S 8 13 29.85 1011 10 16 N/A
12:35 pm 12:35 Sunny 87 30.3 67 19.2 51 51 S 8 13 29.85 1011 10 16 N/A
12:55 pm 12:55 Sunny 88 31 67 19.5 50 50 S 8 13 29.83 1010 10 16 N/A
1:15 pm 13:15 Sunny 89 31.7 68 20 50 50 S 10 17 29.83 1010 10 16 N/A
1:35 pm 13:35 Sunny 90 32 67 19.7 48 48 S 8 13 29.82 1010 10 16 N/A
1:55 pm 13:55 Sunny 91 32.5 66 19.1 45 45 S 16 26 29.81 1009 10 16 N/A
2:15 pm 14:15 Sunny 92 33.2 66 19.1 43 43 SSE 12 19 29.79 1009 10 16 N/A
2:35 pm 14:35 Sunny 92 33.4 66 19 43 43 SSE 14 22 29.79 1009 10 16 N/A
2:55 pm 14:55 Sunny 92 33.4 68 19.8 45 45 SSE 14 22 29.78 1009 10 16 N/A
3:15 pm 15:15 Sunny 94 34.3 65 18.6 39 39 SSE 14 22 29.78 1008 10 16 N/A
3:35 pm 15:35 Sunny 94 34.4 64 17.5 37 37 S 15 24 29.77 1008 10 16 N/A
3:55 pm 15:55 Sunny 95 34.8 64 18 37 37 SSW 12 19 29.77 1008 10 16 N/A
4:15 pm 16:15 Sunny 95 34.9 63 17.2 35 35 SSW 13 20 29.76 1008 10 16 N/A
4:35 pm 16:35 Sunny 95 35 65 18.3 37 37 SW 8 13 29.76 1008 10 16 N/A
4:55 pm 16:55 Sunny 95 35.2 65 18.1 36 36 SSW 10 17 29.76 1008 10 16 N/A
5:15 pm 17:15 Sunny 95 34.8 63 17 35 35 S 8 13 29.75 1008 10 16 N/A
5:35 pm 17:35 Sunny 95 35 65 18.1 37 37 S 9 15 29.74 1007 10 16 N/A
5:55 pm 17:55 Sunny 95 34.8 65 18.4 38 38 S 9 15 29.73 1007 10 16 N/A
6:15 pm 18:15 Sunny 94 34.5 65 18.6 39 39 S 9 15 29.73 1007 10 16 N/A
6:35 pm 18:35 Sunny 93 33.9 67 19.4 42 42 SSE 9 15 29.73 1007 10 16 N/A
6:55 pm 18:55 Sunny 92 33.5 67 19.4 43 43 SSE 9 15 29.73 1007 10 16 N/A
7:15 pm 19:15 Sunny 91 32.7 68 20.1 47 47 SSE 9 15 29.75 1007 10 16 N/A
7:35 pm 19:35 Sunny 90 32.1 68 20.1 49 49 SSE 9 15 29.75 1008 10 16 N/A
7:55 pm 19:55 Sunny 89 31.5 68 20 50 50 SE 8 13 29.76 1008 10 16 N/A
8:15 pm 20:15 Sunny 87 30.8 68 20.2 53 53 SE 10 17 29.76 1008 10 16 N/A
8:35 pm 20:35 Sunny 86 29.9 69 20.4 57 57 E 7 11 29.76 1008 10 16 N/A
8:55 pm 20:55 Sunny 84 28.7 68 19.8 59 59 N 8 13 29.78 1008 10 16 N/A
9:15 pm 21:15 Clear 82 27.9 67 19.5 60 60 SE 7 11 29.80 1009 10 16 N/A
9:35 pm 21:35 Clear 80 26.9 67 19.2 63 63 SSE 7 11 29.80 1009 10 16 N/A
9:55 pm 21:55 Clear 78 25.8 67 19.2 67 67 SSE 6 9 29.82 1010 10 16 N/A
10:15 pm 22:15 Clear 77 25.1 66 19 69 69 SSE 6 9 29.83 1010 10 16 N/A
10:35 pm 22:35 Clear 78 25.3 65 18.6 67 67 SSE 6 9 29.83 1010 10 16 N/A
10:55 pm 22:55 Clear 77 25 65 18.5 67 67 SSE 7 11 29.83 1010 10 16 N/A
11:15 pm 23:15 Clear 75 24.1 65 18.4 71 71 SSE 6 9 29.84 1010 10 16 N/A
11:35 pm 23:35 Clear 75 24.1 65 18.2 70 70 SSE 6 9 29.85 1011 10 16 N/A
11:55 pm 23:55 Clear 76 24.3 64 18 68 68 S 7 11 29.85 1011 10 16 N/A

Powered by AerisWeather